Regional Weather Roundup
Issued by NWS

Home | Current Version | Previous Version | Text Only | Print | Product List | Glossary On
Versions: 1 2 3 4 5 6 7 8 9 10 11 12 13 14 15 16 17 18 19 20 21 22 23 24 25 26 27
000
ASUS42 KKEY 260710
RWRKEY

FLORIDA REGIONAL WEATHER ROUNDUP FOR THE FLORIDA KEYS
NATIONAL WEATHER SERVICE KEY WEST FLORIDA
300 AM EDT TUE SEP 26 2017

...SOUTH FLORIDA AND THE KEYS...

CITY           SKY/WX    TMP DP  RH WIND       PRES   REMARKS
FORT MYERS     CLOUDY    81  79  94 N5        29.87F HX  90
SW REGIONAL AP CLOUDY    80  76  87 N3        29.87F
NAPLES         CLOUDY    82  77  84 E3        29.87F HX  90
MIAMI          CLOUDY    82  78  88 CALM      29.87F HX  91
WEST KENDALL   PTCLDY    79  75  87 E3        29.87F
HOMESTEAD      CLOUDY    79  79 100 CALM      29.86F
MARATHON       RAIN      77  74  90 S6        29.86F FOG
KEY WEST INTL  CLOUDY    84  75  74 SW6       29.88F HX  92

...INTERNATIONAL WEATHER...

CITY           SKY/WX    TMP DP  RH WIND       PRES   REMARKS
NASSAU BAHAMAS MOCLDY    81  77  89 CALM      29.88S
CANCUN MEXICO  MOCLDY    79  77  94 SE10      29.81F
COZUMEL MEXICO MOCLDY    81  77  89 SE7       29.79F

ADJACENT COASTAL WATERS...

STATION/POSITION TIME  SKY/WX   TEMP    WIND        PRES    WAVE
                                AIR SEA DIR/SP/G            HT/PER
                 (UTC)          (F)     (DEG/KT/KT) (MB)    (FT/S)
PULASKI SHOAL LI 0700            83     180/  4/  5 1011.7F
SAND KEY         0650            82                 1012.3F
LONG KEY         NOT AVBL
MOLASSES REEF    0500            84 85  250/  4/  5 1012.0R
FOWEY ROCKS      0600            84 85  240/  6/  8 1012.5R
Buoy 42097       0630               85                N/A     1

$$




USA.gov is the U.S. government's official web portal to all federal, state and local government web resources and services.